Meath Environmental Platform

Observations for Trim Patrick St

Time AQI Temp °C Hum % Pres Pa CO μg/m³ H₂S μg/m³ NO μg/m³ NO₂ μg/m³ O₃ μg/m³ SO₂ μg/m³ PM1 μg/m³ PM2.5 μg/m³ PM10 μg/m³
Saturday 8 August 2026
05:40 1 14.8 75 38,460 0.24 1.56 3.11 15.58 23.76 0 4.57 8.41 9.25
05:39 1 14.8 75 38,460 0.22 0.6 3.11 17.64 18.99 0 3.71 7.7 8.47
05:38 1 14.8 75 38,460 0.24 0 3.11 12.94 22.38 0 4.57 8.41 9.25
05:37 1 14.8 75 38,460 0.23 0.96 3.11 14.45 23.38 0 4.57 7.71 8.48
05:36 1 14.8 75 38,460 0.23 0.7 3.11 18.81 19 0 3.71 7.7 8.47
05:35 1 14.7 74 38,460 0.24 0.7 3.17 15.33 21.36 0 3.71 7.71 8.49
05:34 1 14.8 75 38,460 0.23 2.42 3.11 17.99 21.71 0 4.57 8.42 9.26
05:33 1 14.7 75 38,460 0.24 1.64 3.13 24.79 17.17 0 5.43 9.13 10.04
05:32 1 14.7 75 38,460 0.24 1.27 3.11 23 16.56 0 3.71 6.98 7.68
05:31 1 14.7 75 38,460 0.24 0 3.06 13.87 22.32 0 3.71 7.7 8.47
05:30 1 14.7 75 38,460 0.23 0.26 2.97 13.51 20.74 0 2.86 7.7 8.47
05:29 1 14.7 75 38,460 0.23 2.7 2.98 24.34 18.54 0 3.71 7.7 8.47
05:28 1 14.7 75 38,460 0.23 0 3.08 14.79 20.83 0 3.71 9.12 10.03
05:27 1 14.7 75 38,460 0.25 0 3.13 13.66 20.86 0 3.71 8.42 9.26
05:26 1 14.7 75 38,460 0.23 0 3.09 12.16 22.85 0 3.71 6.99 7.69
05:25 1 14.7 75 38,460 0.24 1.4 3.16 21.64 18.33 0 4.57 8.42 9.26
05:24 1 14.7 75 38,460 0.24 0 3.14 13.13 22.49 0 5.43 9.84 10.83
05:23 1 14.7 75 38,460 0.24 0 3.13 13.48 22.25 0 4.57 9.13 10.04
05:22 1 14.7 74 38,460 0.24 0 3.08 13.8 22.02 0 4.57 7.72 8.49
05:21 1 14.7 75 38,460 0.24 0 3.16 14.49 21.3 0 4.57 8.42 9.26